Location: Vale
(35.4830°N, 81.3830°W)
Time: 11:36:03
(UTC-04:00)

Cosmos 2237 Rocket - Visible Passes

Search period start: 26 September 2016 00:00
Search period end: 06 October 2016 00:00
Orbit: 835 x 850 km, 71.0° (Epoch: 25 September)

Date Brightness Start Highest point End Pass type
(mag) Time Alt. Az. Time Alt. Az. Time Alt. Az.
26 Sep 5.0 03:48:15 10° NNE 03:51:03 14° NE 03:53:51 10° E visible
26 Sep 2.0 05:30:07 10° NNW 05:35:46 79° WSW 05:41:22 10° SSE visible
26 Sep 4.6 20:19:35 10° WSW 20:24:05 24° WNW 20:28:37 10° N visible
27 Sep 5.0 03:33:37 10° NNE 03:36:11 13° NE 03:38:44 10° E visible
27 Sep 2.0 05:15:17 10° NNW 05:20:56 83° WSW 05:26:33 10° SSE visible
27 Sep 4.6 20:04:38 10° WSW 20:09:14 25° WNW 20:13:51 10° N visible
28 Sep 5.0 03:19:01 10° NNE 03:23:09 11° ENE 03:23:35 10° ENE visible
28 Sep 2.0 05:00:27 10° NNW 05:06:06 88° WSW 05:11:43 10° SSE visible
28 Sep 4.5 19:49:41 10° WSW 19:54:23 26° WNW 19:59:05 10° N visible
29 Sep 4.3 04:56:10 14° SSE 04:56:10 14° SSE 04:56:54 10° SSE visible
29 Sep 4.4 19:34:44 10° WSW 19:39:31 27° WNW 19:44:20 10° N visible
